Orbital Elements at Epoch 2459000.5 (2020-May-31.0) TDB
Reference: JPL 26 (heliocentric ecliptic J2000)
Element | Value | Uncertainty (1-sigma) | Units |
e | .1989931615438241 | 3.9467e-08 | |
a | 2.402380255032707 | 8.9645e-09 | au |
q | 1.92432301285329 | 9.2967e-08 | au |
i | 3.419774262808513 | 4.2156e-06 | deg |
node | 158.8958894058185 | 5.174e-05 | deg |
peri | 189.7951510480547 | 5.2344e-05 | deg |
M | 189.7017535420646 | 8.071e-06 | deg |
tp | 2459643.881734018878 (2022-Mar-05.38173402) | 3.2161e-05 | TDB |
period | 1360.069343426897 3.72 | 7.6127e-06 2.084e-08 | d yr |
n | .2646923862668109 | 1.4816e-09 | deg/d |
Q | 2.880437497212124 | 1.0748e-08 | au |
|
| | Orbit Determination Parameters
Additional Information
|